Time,TemperatureF,DewpointF,PressureIn,WindDirection,WindDirectionDegrees,WindSpeedMPH,WindSpeedGustMPH,Humidity,HourlyPrecipIn,Conditions,Clouds,dailyrainin,SolarRadiationWatts/m^2,SoftwareType,DateUTC
2013-10-30 00:02:00,46.4,42.7,29.75,NNW,348,0.0,1.0,87,0.00,,,0.00,0,WeatherCatV1.02B3,2013-10-30 07:02:00,
2013-10-30 00:07:00,46.1,42.4,29.75,NE,42,0.0,2.0,87,0.00,,,0.00,0,WeatherCatV1.02B3,2013-10-30 07:07:00,
2013-10-30 00:12:00,46.1,42.4,29.75,NNW,348,1.0,3.0,87,0.00,,,0.00,0,WeatherCatV1.02B3,2013-10-30 07:12:00,
2013-10-30 00:17:00,46.1,42.7,29.75,NNW,333,0.0,3.0,88,0.00,,,0.00,0,WeatherCatV1.02B3,2013-10-30 07:17:00,
2013-10-30 00:22:00,46.2,42.8,29.75,NNW,336,0.0,1.0,88,0.00,,,0.00,0,WeatherCatV1.02B3,2013-10-30 07:22:00,
2013-10-30 00:27:00,46.1,42.7,29.75,NE,45,1.0,2.0,88,0.00,,,0.00,0,WeatherCatV1.02B3,2013-10-30 07:27:00,
2013-10-30 00:32:00,46.0,42.6,29.75,ENE,58,0.0,0.0,88,0.00,,,0.00,0,WeatherCatV1.02B3,2013-10-30 07:32:00,
2013-10-30 00:37:00,45.9,42.5,29.75,ENE,58,0.0,0.0,88,0.00,,,0.00,0,WeatherCatV1.02B3,2013-10-30 07:37:00,
2013-10-30 00:42:00,45.7,42.4,29.75,ENE,58,0.0,0.0,88,0.00,,,0.00,0,WeatherCatV1.02B3,2013-10-30 07:42:00,
2013-10-30 00:47:00,45.5,42.2,29.75,ENE,58,0.0,0.0,88,0.00,,,0.00,0,WeatherCatV1.02B3,2013-10-30 07:47:00,
2013-10-30 00:52:00,45.3,42.0,29.75,ENE,58,0.0,0.0,88,0.00,,,0.00,0,WeatherCatV1.02B3,2013-10-30 07:52:00,
2013-10-30 00:57:00,45.1,41.5,29.75,ENE,58,0.0,0.0,87,0.00,,,0.00,0,WeatherCatV1.02B3,2013-10-30 07:57:00,
2013-10-30 01:02:00,44.9,41.3,29.75,ENE,58,0.0,0.0,87,0.00,,,0.00,0,WeatherCatV1.02B3,2013-10-30 08:02:00,
2013-10-30 01:07:00,44.6,41.0,29.75,ENE,58,0.0,0.0,87,0.00,,,0.00,0,WeatherCatV1.02B3,2013-10-30 08:07:00,
2013-10-30 01:12:00,44.5,41.2,29.75,ENE,58,0.0,0.0,88,0.00,,,0.00,0,WeatherCatV1.02B3,2013-10-30 08:12:00,
2013-10-30 01:17:00,44.5,41.2,29.75,North,0,2.0,3.0,88,0.00,,,0.00,0,WeatherCatV1.02B3,2013-10-30 08:17:00,
2013-10-30 01:22:00,44.5,41.5,29.75,NNW,346,0.0,1.0,89,0.00,,,0.00,0,WeatherCatV1.02B3,2013-10-30 08:22:00,
2013-10-30 01:27:00,44.6,41.6,29.75,NNW,346,0.0,0.0,89,0.00,,,0.00,0,WeatherCatV1.02B3,2013-10-30 08:27:00,
2013-10-30 01:32:00,44.5,41.5,29.75,NNW,346,0.0,0.0,89,0.00,,,0.00,0,WeatherCatV1.02B3,2013-10-30 08:32:00,
2013-10-30 01:37:00,44.5,41.5,29.75,NNW,346,0.0,2.0,89,0.00,,,0.00,0,WeatherCatV1.02B3,2013-10-30 08:37:00,
2013-10-30 01:42:00,44.3,41.3,29.75,NNW,346,0.0,1.0,89,0.00,,,0.00,0,WeatherCatV1.02B3,2013-10-30 08:42:00,
2013-10-30 01:47:00,44.1,41.1,29.75,North,350,1.0,2.0,89,0.00,,,0.00,0,WeatherCatV1.02B3,2013-10-30 08:47:00,
2013-10-30 01:52:00,44.2,41.5,29.75,North,355,0.0,0.0,90,0.00,,,0.00,0,WeatherCatV1.02B3,2013-10-30 08:52:00,
2013-10-30 01:57:00,44.2,41.5,29.75,North,355,0.0,1.0,90,0.00,,,0.00,0,WeatherCatV1.02B3,2013-10-30 08:57:00,
2013-10-30 02:02:00,44.2,41.5,29.75,North,355,0.0,1.0,90,0.00,,,0.00,0,WeatherCatV1.02B3,2013-10-30 09:02:00,
2013-10-30 02:07:00,44.0,41.3,29.75,North,355,0.0,0.0,90,0.00,,,0.00,0,WeatherCatV1.02B3,2013-10-30 09:07:00,
2013-10-30 02:12:00,43.9,40.9,29.75,North,355,0.0,0.0,89,0.00,,,0.00,0,WeatherCatV1.02B3,2013-10-30 09:12:00,
2013-10-30 02:17:00,43.7,40.7,29.75,North,355,0.0,0.0,89,0.00,,,0.00,0,WeatherCatV1.02B3,2013-10-30 09:17:00,
2013-10-30 02:22:00,43.6,40.9,29.75,North,0,0.0,1.0,90,0.00,,,0.00,0,WeatherCatV1.02B3,2013-10-30 09:22:00,
2013-10-30 02:27:00,43.3,40.3,29.75,North,0,0.0,0.0,89,0.00,,,0.00,0,WeatherCatV1.02B3,2013-10-30 09:27:00,
2013-10-30 02:32:00,43.1,40.1,29.75,North,0,0.0,0.0,89,0.00,,,0.00,0,WeatherCatV1.02B3,2013-10-30 09:32:00,
2013-10-30 02:37:00,42.9,39.9,29.75,North,0,0.0,0.0,89,0.00,,,0.00,0,WeatherCatV1.02B3,2013-10-30 09:37:00,
2013-10-30 02:42:00,42.8,39.8,29.75,North,0,0.0,0.0,89,0.00,,,0.00,0,WeatherCatV1.02B3,2013-10-30 09:42:00,
2013-10-30 02:47:00,42.6,39.6,29.75,North,0,0.0,0.0,89,0.00,,,0.00,0,WeatherCatV1.02B3,2013-10-30 09:47:00,
2013-10-30 02:52:00,42.4,39.4,29.75,North,0,0.0,0.0,89,0.00,,,0.00,0,WeatherCatV1.02B3,2013-10-30 09:52:00,
2013-10-30 02:57:00,42.2,39.2,29.75,North,0,0.0,1.0,89,0.00,,,0.00,0,WeatherCatV1.02B3,2013-10-30 09:57:00,
2013-10-30 03:02:00,42.1,39.1,29.75,North,0,0.0,0.0,89,0.00,,,0.00,0,WeatherCatV1.02B3,2013-10-30 10:02:00,
2013-10-30 03:07:00,42.1,39.4,29.75,NE,38,1.0,2.0,90,0.00,,,0.00,0,WeatherCatV1.02B3,2013-10-30 10:07:00,
2013-10-30 03:12:00,42.4,39.7,29.75,ESE,122,1.0,1.0,90,0.00,,,0.00,0,WeatherCatV1.02B3,2013-10-30 10:12:00,
2013-10-30 03:17:00,42.5,39.8,29.75,ESE,122,0.0,1.0,90,0.00,,,0.00,0,WeatherCatV1.02B3,2013-10-30 10:17:00,
2013-10-30 03:22:00,42.4,39.7,29.75,ESE,122,0.0,0.0,90,0.00,,,0.00,0,WeatherCatV1.02B3,2013-10-30 10:22:00,
2013-10-30 03:27:00,42.2,39.5,29.75,SSE,160,1.0,1.0,90,0.00,,,0.00,0,WeatherCatV1.02B3,2013-10-30 10:27:00,
2013-10-30 03:32:00,41.9,39.2,29.75,SSE,160,0.0,1.0,90,0.00,,,0.00,0,WeatherCatV1.02B3,2013-10-30 10:32:00,
2013-10-30 03:37:00,41.7,39.0,29.75,SSE,160,0.0,0.0,90,0.00,,,0.00,0,WeatherCatV1.02B3,2013-10-30 10:37:00,
2013-10-30 03:42:00,41.5,38.8,29.75,SSE,160,0.0,0.0,90,0.00,,,0.00,0,WeatherCatV1.02B3,2013-10-30 10:42:00,
2013-10-30 03:47:00,41.3,38.6,29.75,SSE,160,0.0,0.0,90,0.00,,,0.00,0,WeatherCatV1.02B3,2013-10-30 10:47:00,
2013-10-30 03:52:00,41.2,38.5,29.75,SSE,160,0.0,0.0,90,0.00,,,0.00,0,WeatherCatV1.02B3,2013-10-30 10:52:00,
2013-10-30 03:57:00,41.1,38.4,29.75,ESE,105,0.0,1.0,90,0.00,,,0.00,0,WeatherCatV1.02B3,2013-10-30 10:57:00,
2013-10-30 04:02:00,41.1,38.7,29.75,NE,55,0.0,1.0,91,0.00,,,0.00,0,WeatherCatV1.02B3,2013-10-30 11:02:00,
2013-10-30 04:07:00,41.3,38.9,29.75,ENE,63,0.0,2.0,91,0.00,,,0.00,0,WeatherCatV1.02B3,2013-10-30 11:07:00,
2013-10-30 04:12:00,41.5,39.1,29.75,ENE,63,0.0,1.0,91,0.00,,,0.00,0,WeatherCatV1.02B3,2013-10-30 11:12:00,
2013-10-30 04:17:00,41.5,39.1,29.75,ENE,63,0.0,0.0,91,0.00,,,0.00,0,WeatherCatV1.02B3,2013-10-30 11:17:00,
2013-10-30 04:22:00,41.4,39.0,29.75,ENE,63,0.0,0.0,91,0.00,,,0.00,0,WeatherCatV1.02B3,2013-10-30 11:22:00,
2013-10-30 04:27:00,41.2,38.8,29.75,ENE,63,0.0,0.0,91,0.00,,,0.00,0,WeatherCatV1.02B3,2013-10-30 11:27:00,
2013-10-30 04:32:00,41.1,38.7,29.75,ENE,63,0.0,0.0,91,0.00,,,0.00,0,WeatherCatV1.02B3,2013-10-30 11:32:00,
2013-10-30 04:37:00,40.9,38.5,29.75,ENE,63,0.0,0.0,91,0.00,,,0.00,0,WeatherCatV1.02B3,2013-10-30 11:37:00,
2013-10-30 04:42:00,40.7,38.3,29.75,ENE,63,0.0,0.0,91,0.00,,,0.00,0,WeatherCatV1.02B3,2013-10-30 11:42:00,
2013-10-30 04:47:00,40.6,38.2,29.75,ENE,63,0.0,0.0,91,0.00,,,0.00,0,WeatherCatV1.02B3,2013-10-30 11:47:00,
2013-10-30 04:52:00,40.3,37.9,29.75,ENE,61,0.0,0.0,91,0.00,,,0.00,0,WeatherCatV1.02B3,2013-10-30 11:52:00,
2013-10-30 04:57:00,40.1,37.7,29.75,ENE,62,0.0,1.0,91,0.00,,,0.00,0,WeatherCatV1.02B3,2013-10-30 11:57:00,
2013-10-30 05:02:00,40.0,37.6,29.75,ENE,62,0.0,0.0,91,0.00,,,0.00,0,WeatherCatV1.02B3,2013-10-30 12:02:00,
2013-10-30 05:07:00,39.9,37.5,29.75,ENE,62,0.0,0.0,91,0.00,,,0.00,0,WeatherCatV1.02B3,2013-10-30 12:07:00,
2013-10-30 05:12:00,39.8,37.4,29.75,ENE,62,0.0,0.0,91,0.00,,,0.00,0,WeatherCatV1.02B3,2013-10-30 12:12:00,
2013-10-30 05:17:00,39.7,37.3,29.75,ENE,62,0.0,0.0,91,0.00,,,0.00,0,WeatherCatV1.02B3,2013-10-30 12:17:00,
2013-10-30 05:22:00,39.6,37.2,29.75,ENE,62,0.0,0.0,91,0.00,,,0.00,0,WeatherCatV1.02B3,2013-10-30 12:22:00,
2013-10-30 05:27:00,39.5,37.1,29.75,NE,56,0.0,2.0,91,0.00,,,0.00,0,WeatherCatV1.02B3,2013-10-30 12:27:00,
2013-10-30 05:32:00,39.7,37.6,29.75,NE,35,0.0,0.0,92,0.00,,,0.00,0,WeatherCatV1.02B3,2013-10-30 12:32:00,
2013-10-30 05:37:00,39.8,37.7,29.75,NE,35,0.0,0.0,92,0.00,,,0.00,0,WeatherCatV1.02B3,2013-10-30 12:37:00,
2013-10-30 05:42:00,39.9,37.8,29.75,NE,38,2.0,2.0,92,0.00,,,0.00,0,WeatherCatV1.02B3,2013-10-30 12:42:00,
2013-10-30 05:47:00,40.4,38.5,29.75,NE,42,2.0,2.0,93,0.00,,,0.00,0,WeatherCatV1.02B3,2013-10-30 12:47:00,
2013-10-30 05:52:00,40.7,38.6,29.75,NNE,30,1.0,3.0,92,0.00,,,0.00,0,WeatherCatV1.02B3,2013-10-30 12:52:00,
2013-10-30 05:57:00,40.8,38.7,29.75,NNW,346,1.0,2.0,92,0.00,,,0.00,0,WeatherCatV1.02B3,2013-10-30 12:57:00,
2013-10-30 06:02:00,40.8,38.7,29.75,North,350,0.0,1.0,92,0.00,,,0.00,0,WeatherCatV1.02B3,2013-10-30 13:02:00,
2013-10-30 06:07:00,40.6,38.5,29.75,North,350,0.0,0.0,92,0.00,,,0.00,0,WeatherCatV1.02B3,2013-10-30 13:07:00,
2013-10-30 06:13:00,40.4,38.3,29.75,North,350,1.0,1.0,92,0.00,,,0.00,0,WeatherCatV1.02B3,2013-10-30 13:13:00,
2013-10-30 06:18:00,40.4,38.3,29.75,North,350,0.0,0.0,92,0.00,,,0.00,0,WeatherCatV1.02B3,2013-10-30 13:18:00,
2013-10-30 06:23:00,40.2,38.1,29.75,North,350,0.0,0.0,92,0.00,,,0.00,0,WeatherCatV1.02B3,2013-10-30 13:23:00,
2013-10-30 06:28:00,40.1,38.0,29.75,North,350,0.0,0.0,92,0.00,,,0.00,0,WeatherCatV1.02B3,2013-10-30 13:28:00,
2013-10-30 06:33:00,40.1,38.0,29.75,NNE,15,0.0,1.0,92,0.00,,,0.00,0,WeatherCatV1.02B3,2013-10-30 13:33:00,
2013-10-30 06:38:00,40.2,38.1,29.75,NNE,15,0.0,1.0,92,0.00,,,0.00,0,WeatherCatV1.02B3,2013-10-30 13:38:00,
2013-10-30 06:43:00,40.2,38.1,29.75,NNE,15,0.0,0.0,92,0.00,,,0.00,0,WeatherCatV1.02B3,2013-10-30 13:43:00,
2013-10-30 06:48:00,40.1,38.0,29.75,NNE,15,0.0,0.0,92,0.00,,,0.00,0,WeatherCatV1.02B3,2013-10-30 13:48:00,
2013-10-30 06:53:00,40.0,37.9,29.75,NNE,15,0.0,0.0,92,0.00,,,0.00,0,WeatherCatV1.02B3,2013-10-30 13:53:00,
2013-10-30 06:58:00,39.7,37.6,29.75,NNE,15,0.0,0.0,92,0.00,,,0.00,0,WeatherCatV1.02B3,2013-10-30 13:58:00,
2013-10-30 07:03:00,39.5,37.4,29.75,NNE,15,0.0,0.0,92,0.00,,,0.00,0,WeatherCatV1.02B3,2013-10-30 14:03:00,
2013-10-30 07:08:00,39.1,37.0,29.75,NNE,15,0.0,1.0,92,0.00,,,0.00,0,WeatherCatV1.02B3,2013-10-30 14:08:00,
2013-10-30 07:13:00,38.9,36.8,29.75,NNE,15,0.0,0.0,92,0.00,,,0.00,0,WeatherCatV1.02B3,2013-10-30 14:13:00,
2013-10-30 07:18:00,38.9,36.8,29.75,NNE,15,0.0,0.0,92,0.00,,,0.00,0,WeatherCatV1.02B3,2013-10-30 14:18:00,
2013-10-30 07:23:00,38.8,36.7,29.75,NNE,15,0.0,1.0,92,0.00,,,0.00,5,WeatherCatV1.02B3,2013-10-30 14:23:00,
2013-10-30 07:28:00,38.8,36.7,29.75,NNE,15,0.0,0.0,92,0.00,,,0.00,9,WeatherCatV1.02B3,2013-10-30 14:28:00,
2013-10-30 07:33:00,38.7,36.6,29.75,NNE,15,0.0,0.0,92,0.00,,,0.00,11,WeatherCatV1.02B3,2013-10-30 14:33:00,
2013-10-30 07:38:00,38.7,36.6,29.75,NNE,15,0.0,0.0,92,0.00,,,0.00,12,WeatherCatV1.02B3,2013-10-30 14:38:00,
2013-10-30 07:43:00,38.7,36.6,29.75,NNE,15,0.0,0.0,92,0.00,,,0.00,12,WeatherCatV1.02B3,2013-10-30 14:43:00,
2013-10-30 07:48:00,38.7,36.6,29.75,NNE,15,0.0,0.0,92,0.00,,,0.00,14,WeatherCatV1.02B3,2013-10-30 14:48:00,
2013-10-30 07:53:00,38.7,36.6,29.75,NNE,15,0.0,0.0,92,0.00,,,0.00,16,WeatherCatV1.02B3,2013-10-30 14:53:00,
2013-10-30 07:58:00,38.7,36.6,29.75,NNE,15,0.0,0.0,92,0.00,,,0.00,18,WeatherCatV1.02B3,2013-10-30 14:58:00,
2013-10-30 08:03:00,38.7,36.9,29.75,NNE,15,0.0,0.0,93,0.00,,,0.00,19,WeatherCatV1.02B3,2013-10-30 15:03:00,
2013-10-30 08:08:00,38.8,37.0,29.75,NNE,15,0.0,0.0,93,0.00,,,0.00,19,WeatherCatV1.02B3,2013-10-30 15:08:00,
2013-10-30 08:13:00,38.9,37.1,29.75,NNE,15,0.0,0.0,93,0.00,,,0.00,21,WeatherCatV1.02B3,2013-10-30 15:13:00,
2013-10-30 08:18:00,39.2,37.3,29.75,NE,38,0.0,1.0,93,0.00,,,0.00,23,WeatherCatV1.02B3,2013-10-30 15:18:00,
2013-10-30 08:23:00,39.5,37.6,29.75,NE,37,0.0,0.0,93,0.00,,,0.00,25,WeatherCatV1.02B3,2013-10-30 15:23:00,
2013-10-30 08:28:00,39.8,37.9,29.75,NE,37,0.0,0.0,93,0.00,,,0.00,33,WeatherCatV1.02B3,2013-10-30 15:28:00,
2013-10-30 08:33:00,40.2,38.3,29.75,NE,37,0.0,0.0,93,0.00,,,0.00,139,WeatherCatV1.02B3,2013-10-30 15:33:00,
2013-10-30 08:38:00,40.9,39.3,29.75,NE,37,0.0,0.0,94,0.00,,,0.00,135,WeatherCatV1.02B3,2013-10-30 15:38:00,
2013-10-30 08:43:00,41.4,39.8,29.75,NE,37,0.0,0.0,94,0.00,,,0.00,79,WeatherCatV1.02B3,2013-10-30 15:43:00,
2013-10-30 08:48:00,41.8,40.2,29.75,NE,37,0.0,0.0,94,0.00,,,0.00,174,WeatherCatV1.02B3,2013-10-30 15:48:00,
2013-10-30 08:53:00,42.5,40.9,29.75,NE,37,0.0,0.0,94,0.00,,,0.00,223,WeatherCatV1.02B3,2013-10-30 15:53:00,
2013-10-30 08:58:00,42.8,41.2,29.75,NE,37,0.0,0.0,94,0.00,,,0.00,239,WeatherCatV1.02B3,2013-10-30 15:58:00,
2013-10-30 09:03:00,43.3,41.7,29.75,NE,37,0.0,0.0,94,0.00,,,0.00,250,WeatherCatV1.02B3,2013-10-30 16:03:00,
2013-10-30 09:08:00,43.8,42.5,29.75,NE,37,0.0,0.0,95,0.00,,,0.00,264,WeatherCatV1.02B3,2013-10-30 16:08:00,
2013-10-30 09:13:00,44.5,43.2,29.75,NE,37,0.0,0.0,95,0.00,,,0.00,278,WeatherCatV1.02B3,2013-10-30 16:13:00,
2013-10-30 09:18:00,45.4,44.1,29.75,NE,37,0.0,0.0,95,0.00,,,0.00,279,WeatherCatV1.02B3,2013-10-30 16:18:00,
2013-10-30 09:23:00,46.0,44.6,29.75,NE,37,0.0,0.0,95,0.00,,,0.00,304,WeatherCatV1.02B3,2013-10-30 16:23:00,
2013-10-30 09:28:00,46.5,45.1,29.75,South,189,0.0,0.0,95,0.00,,,0.00,320,WeatherCatV1.02B3,2013-10-30 16:28:00,
2013-10-30 09:33:00,47.1,45.7,29.75,WSW,243,0.0,0.0,95,0.00,,,0.00,345,WeatherCatV1.02B3,2013-10-30 16:33:00,
2013-10-30 09:38:00,47.7,46.3,29.75,West,263,0.0,0.0,95,0.00,,,0.00,357,WeatherCatV1.02B3,2013-10-30 16:38:00,
2013-10-30 09:43:00,48.5,47.1,29.75,WSW,257,0.0,0.0,95,0.00,,,0.00,378,WeatherCatV1.02B3,2013-10-30 16:43:00,
2013-10-30 09:48:00,49.1,47.7,29.75,SW,227,1.0,3.0,95,0.00,,,0.00,396,WeatherCatV1.02B3,2013-10-30 16:48:00,
2013-10-30 09:53:00,50.0,48.6,29.75,WSW,251,1.0,2.0,95,0.00,,,0.00,408,WeatherCatV1.02B3,2013-10-30 16:53:00,
2013-10-30 09:58:00,50.9,49.5,29.75,South,173,0.0,1.0,95,0.00,,,0.00,424,WeatherCatV1.02B3,2013-10-30 16:58:00,
2013-10-30 10:03:00,51.7,50.0,29.75,SW,236,0.0,2.0,94,0.00,,,0.00,439,WeatherCatV1.02B3,2013-10-30 17:03:00,
2013-10-30 10:08:00,52.6,50.6,29.75,SE,145,0.0,1.0,93,0.00,,,0.00,452,WeatherCatV1.02B3,2013-10-30 17:08:00,
2013-10-30 10:13:00,53.6,51.0,29.75,SSE,167,0.0,0.0,91,0.00,,,0.00,462,WeatherCatV1.02B3,2013-10-30 17:13:00,
2013-10-30 10:18:00,54.7,51.2,29.75,SSE,158,0.0,2.0,88,0.00,,,0.00,476,WeatherCatV1.02B3,2013-10-30 17:18:00,
2013-10-30 10:23:00,56.0,51.9,29.75,SSE,148,1.0,2.0,86,0.00,,,0.00,489,WeatherCatV1.02B3,2013-10-30 17:23:00,
2013-10-30 10:28:00,57.3,50.8,29.75,SW,227,2.0,3.0,79,0.00,,,0.00,497,WeatherCatV1.02B3,2013-10-30 17:28:00,
2013-10-30 10:33:00,58.6,50.3,29.75,WSW,253,2.0,2.0,74,0.00,,,0.00,508,WeatherCatV1.02B3,2013-10-30 17:33:00,
2013-10-30 10:38:00,60.0,49.0,29.75,ESE,119,1.0,3.0,67,0.00,,,0.00,519,WeatherCatV1.02B3,2013-10-30 17:38:00,
2013-10-30 10:43:00,61.2,47.6,29.75,ESE,114,1.0,3.0,61,0.00,,,0.00,531,WeatherCatV1.02B3,2013-10-30 17:43:00,
2013-10-30 10:48:00,62.2,47.7,29.75,SSW,200,2.0,3.0,59,0.00,,,0.00,540,WeatherCatV1.02B3,2013-10-30 17:48:00,
2013-10-30 10:53:00,63.1,47.6,29.75,SSW,208,0.0,2.0,57,0.00,,,0.00,550,WeatherCatV1.02B3,2013-10-30 17:53:00,
2013-10-30 10:58:00,64.0,47.0,29.75,SSW,192,0.0,0.0,54,0.00,,,0.00,554,WeatherCatV1.02B3,2013-10-30 17:58:00,
2013-10-30 11:03:00,64.9,46.8,29.75,North,349,2.0,2.0,52,0.00,,,0.00,568,WeatherCatV1.02B3,2013-10-30 18:03:00,
2013-10-30 11:08:00,65.6,45.4,29.75,NNW,335,0.0,2.0,48,0.00,,,0.00,571,WeatherCatV1.02B3,2013-10-30 18:08:00,
2013-10-30 11:13:00,66.5,45.1,29.75,SE,126,1.0,4.0,46,0.00,,,0.00,582,WeatherCatV1.02B3,2013-10-30 18:13:00,
2013-10-30 11:18:00,67.1,43.8,29.75,WNW,302,1.0,2.0,43,0.00,,,0.00,589,WeatherCatV1.02B3,2013-10-30 18:18:00,
2013-10-30 11:23:00,68.0,43.4,29.75,SSE,160,3.0,3.0,41,0.00,,,0.00,596,WeatherCatV1.02B3,2013-10-30 18:23:00,
2013-10-30 11:28:00,68.6,42.6,29.75,East,88,1.0,4.0,39,0.00,,,0.00,603,WeatherCatV1.02B3,2013-10-30 18:28:00,
2013-10-30 11:33:00,69.3,43.9,29.75,SE,142,0.0,1.0,40,0.00,,,0.00,608,WeatherCatV1.02B3,2013-10-30 18:33:00,
2013-10-30 11:38:00,69.9,43.8,29.75,WNW,297,1.0,3.0,39,0.00,,,0.00,612,WeatherCatV1.02B3,2013-10-30 18:38:00,
2013-10-30 11:43:00,70.1,44.0,29.75,SSE,158,1.0,3.0,39,0.00,,,0.00,617,WeatherCatV1.02B3,2013-10-30 18:43:00,
2013-10-30 11:48:00,70.2,44.1,29.75,SW,235,1.0,2.0,39,0.00,,,0.00,619,WeatherCatV1.02B3,2013-10-30 18:48:00,
2013-10-30 11:53:00,70.2,44.1,29.75,NE,36,3.0,4.0,39,0.00,,,0.00,626,WeatherCatV1.02B3,2013-10-30 18:53:00,
2013-10-30 11:58:00,70.4,44.2,29.75,WNW,294,0.0,4.0,39,0.00,,,0.00,631,WeatherCatV1.02B3,2013-10-30 18:58:00,
2013-10-30 12:03:00,70.6,44.4,29.75,WSW,243,1.0,5.0,39,0.00,,,0.00,633,WeatherCatV1.02B3,2013-10-30 19:03:00,
2013-10-30 12:08:00,71.0,44.1,29.75,ENE,69,1.0,3.0,38,0.00,,,0.00,633,WeatherCatV1.02B3,2013-10-30 19:08:00,
2013-10-30 12:13:00,71.4,44.5,29.75,South,180,0.0,1.0,38,0.00,,,0.00,638,WeatherCatV1.02B3,2013-10-30 19:13:00,
2013-10-30 12:18:00,71.8,44.8,29.75,WSW,254,5.0,5.0,38,0.00,,,0.00,640,WeatherCatV1.02B3,2013-10-30 19:18:00,
2013-10-30 12:23:00,71.7,44.7,29.75,West,267,0.0,4.0,38,0.00,,,0.00,640,WeatherCatV1.02B3,2013-10-30 19:23:00,
2013-10-30 12:28:00,71.3,44.4,29.75,West,277,4.0,7.0,38,0.00,,,0.00,640,WeatherCatV1.02B3,2013-10-30 19:28:00,
2013-10-30 12:33:00,71.1,44.2,29.75,NNW,330,0.0,2.0,38,0.00,,,0.00,642,WeatherCatV1.02B3,2013-10-30 19:33:00,
2013-10-30 12:38:00,71.5,44.5,29.75,West,266,3.0,4.0,38,0.00,,,0.00,643,WeatherCatV1.02B3,2013-10-30 19:38:00,
2013-10-30 12:43:00,71.6,43.9,29.75,WNW,297,3.0,7.0,37,0.00,,,0.00,643,WeatherCatV1.02B3,2013-10-30 19:43:00,
2013-10-30 12:48:00,71.2,43.6,29.75,West,281,7.0,7.0,37,0.00,,,0.00,643,WeatherCatV1.02B3,2013-10-30 19:48:00,
2013-10-30 12:53:00,71.0,44.8,29.75,NNW,344,0.0,3.0,39,0.00,,,0.00,640,WeatherCatV1.02B3,2013-10-30 19:53:00,
2013-10-30 12:58:00,71.4,45.1,29.75,East,86,3.0,6.0,39,0.00,,,0.00,636,WeatherCatV1.02B3,2013-10-30 19:58:00,
2013-10-30 13:03:00,71.6,44.6,29.75,SW,230,2.0,4.0,38,0.00,,,0.00,640,WeatherCatV1.02B3,2013-10-30 20:03:00,
2013-10-30 13:08:00,72.0,45.0,29.75,East,101,2.0,3.0,38,0.00,,,0.00,636,WeatherCatV1.02B3,2013-10-30 20:08:00,
2013-10-30 13:13:00,72.3,44.6,29.75,SW,234,1.0,3.0,37,0.00,,,0.00,633,WeatherCatV1.02B3,2013-10-30 20:13:00,
2013-10-30 13:18:00,72.4,44.6,29.75,West,263,2.0,4.0,37,0.00,,,0.00,631,WeatherCatV1.02B3,2013-10-30 20:18:00,
2013-10-30 13:24:00,72.6,44.8,29.75,NW,312,0.0,6.0,37,0.00,,,0.00,626,WeatherCatV1.02B3,2013-10-30 20:24:00,
2013-10-30 13:29:00,72.9,44.4,29.75,WSW,238,2.0,4.0,36,0.00,,,0.00,622,WeatherCatV1.02B3,2013-10-30 20:29:00,
2013-10-30 13:34:00,72.7,44.2,29.75,WSW,251,2.0,6.0,36,0.00,,,0.00,619,WeatherCatV1.02B3,2013-10-30 20:34:00,
2013-10-30 13:39:00,72.5,43.3,29.75,WSW,245,1.0,8.0,35,0.00,,,0.00,617,WeatherCatV1.02B3,2013-10-30 20:39:00,
2013-10-30 13:44:00,72.4,43.9,29.75,East,84,0.0,4.0,36,0.00,,,0.00,612,WeatherCatV1.02B3,2013-10-30 20:44:00,
2013-10-30 13:49:00,72.4,43.2,29.75,West,263,4.0,9.0,35,0.00,,,0.00,605,WeatherCatV1.02B3,2013-10-30 20:49:00,
2013-10-30 13:54:00,72.4,43.2,29.75,NE,50,1.0,7.0,35,0.00,,,0.00,601,WeatherCatV1.02B3,2013-10-30 20:54:00,
2013-10-30 13:59:00,72.3,43.1,29.75,NNE,20,0.0,4.0,35,0.00,,,0.00,594,WeatherCatV1.02B3,2013-10-30 20:59:00,
2013-10-30 14:04:00,72.4,42.4,29.75,WNW,302,5.0,5.0,34,0.00,,,0.00,587,WeatherCatV1.02B3,2013-10-30 21:04:00,
2013-10-30 14:09:00,72.4,43.2,29.75,West,273,4.0,8.0,35,0.00,,,0.00,582,WeatherCatV1.02B3,2013-10-30 21:09:00,
2013-10-30 14:14:00,72.2,43.0,29.75,WNW,294,2.0,6.0,35,0.00,,,0.00,575,WeatherCatV1.02B3,2013-10-30 21:14:00,
2013-10-30 14:19:00,72.4,43.2,29.75,WNW,282,0.0,4.0,35,0.00,,,0.00,566,WeatherCatV1.02B3,2013-10-30 21:19:00,
2013-10-30 14:24:00,72.7,43.5,29.75,WSW,257,6.0,12.0,35,0.00,,,0.00,559,WeatherCatV1.02B3,2013-10-30 21:24:00,
2013-10-30 14:29:00,72.5,42.5,29.75,West,269,3.0,4.0,34,0.00,,,0.00,550,WeatherCatV1.02B3,2013-10-30 21:29:00,
2013-10-30 14:34:00,72.4,42.4,29.75,NW,309,3.0,8.0,34,0.00,,,0.00,541,WeatherCatV1.02B3,2013-10-30 21:34:00,
2013-10-30 14:39:00,71.9,42.8,29.75,NW,322,4.0,5.0,35,0.00,,,0.00,536,WeatherCatV1.02B3,2013-10-30 21:39:00,
2013-10-30 14:44:00,71.9,42.0,29.75,West,266,2.0,4.0,34,0.00,,,0.00,524,WeatherCatV1.02B3,2013-10-30 21:44:00,
2013-10-30 14:49:00,71.7,43.3,29.75,SW,223,4.0,8.0,36,0.00,,,0.00,513,WeatherCatV1.02B3,2013-10-30 21:49:00,
2013-10-30 14:54:00,71.7,42.6,29.75,West,276,5.0,5.0,35,0.00,,,0.00,503,WeatherCatV1.02B3,2013-10-30 21:54:00,
2013-10-30 14:59:00,71.9,43.5,29.75,NNW,333,0.0,4.0,36,0.00,,,0.00,492,WeatherCatV1.02B3,2013-10-30 21:59:00,
2013-10-30 15:04:00,72.2,43.0,29.75,NW,316,0.0,2.0,35,0.00,,,0.00,480,WeatherCatV1.02B3,2013-10-30 22:04:00,
2013-10-30 15:09:00,72.6,43.4,29.75,SSW,206,3.0,4.0,35,0.00,,,0.00,471,WeatherCatV1.02B3,2013-10-30 22:09:00,
2013-10-30 15:14:00,72.5,42.5,29.75,West,273,3.0,4.0,34,0.00,,,0.00,459,WeatherCatV1.02B3,2013-10-30 22:14:00,
2013-10-30 15:19:00,72.2,42.3,29.75,WNW,291,3.0,8.0,34,0.00,,,0.00,448,WeatherCatV1.02B3,2013-10-30 22:19:00,
2013-10-30 15:24:00,72.0,42.8,29.75,WSW,250,3.0,4.0,35,0.00,,,0.00,436,WeatherCatV1.02B3,2013-10-30 22:24:00,
2013-10-30 15:29:00,72.1,42.2,29.75,West,279,3.0,7.0,34,0.00,,,0.00,424,WeatherCatV1.02B3,2013-10-30 22:29:00,
2013-10-30 15:34:00,72.1,42.2,29.75,SW,223,2.0,7.0,34,0.00,,,0.00,410,WeatherCatV1.02B3,2013-10-30 22:34:00,
2013-10-30 15:39:00,72.0,42.8,29.75,West,278,1.0,7.0,35,0.00,,,0.00,399,WeatherCatV1.02B3,2013-10-30 22:39:00,
2013-10-30 15:44:00,72.0,42.1,29.75,WSW,244,2.0,7.0,34,0.00,,,0.00,385,WeatherCatV1.02B3,2013-10-30 22:44:00,
2013-10-30 15:49:00,72.0,42.1,29.75,West,273,4.0,10.0,34,0.00,,,0.00,371,WeatherCatV1.02B3,2013-10-30 22:49:00,
2013-10-30 15:54:00,71.7,41.0,29.75,WSW,255,5.0,9.0,33,0.00,,,0.00,359,WeatherCatV1.02B3,2013-10-30 22:54:00,
2013-10-30 15:59:00,71.3,42.2,29.75,NW,317,1.0,4.0,35,0.00,,,0.00,346,WeatherCatV1.02B3,2013-10-30 22:59:00,
2013-10-30 16:04:00,71.3,41.5,29.75,South,173,0.0,6.0,34,0.00,,,0.00,334,WeatherCatV1.02B3,2013-10-30 23:04:00,
2013-10-30 16:09:00,71.3,41.5,29.75,NNW,333,1.0,5.0,34,0.00,,,0.00,320,WeatherCatV1.02B3,2013-10-30 23:09:00,
2013-10-30 16:14:00,71.3,41.5,29.75,West,265,1.0,3.0,34,0.00,,,0.00,306,WeatherCatV1.02B3,2013-10-30 23:14:00,
2013-10-30 16:19:00,71.2,39.8,29.75,WNW,301,2.0,7.0,32,0.00,,,0.00,290,WeatherCatV1.02B3,2013-10-30 23:19:00,
2013-10-30 16:24:00,70.8,40.3,29.75,West,265,1.0,9.0,33,0.00,,,0.00,274,WeatherCatV1.02B3,2013-10-30 23:24:00,
2013-10-30 16:29:00,70.5,40.0,29.75,West,269,0.0,4.0,33,0.00,,,0.00,192,WeatherCatV1.02B3,2013-10-30 23:29:00,
2013-10-30 16:34:00,70.1,39.7,29.75,WNW,300,2.0,4.0,33,0.00,,,0.00,44,WeatherCatV1.02B3,2013-10-30 23:34:00,
2013-10-30 16:39:00,69.8,40.2,29.75,WNW,294,0.0,2.0,34,0.00,,,0.00,44,WeatherCatV1.02B3,2013-10-30 23:39:00,
2013-10-30 16:44:00,69.5,40.6,29.75,NW,321,0.0,3.0,35,0.00,,,0.00,32,WeatherCatV1.02B3,2013-10-30 23:44:00,
2013-10-30 16:49:00,69.2,41.1,29.75,East,84,1.0,1.0,36,0.00,,,0.00,30,WeatherCatV1.02B3,2013-10-30 23:49:00,
2013-10-30 16:54:00,68.8,42.1,29.75,NNW,338,1.0,4.0,38,0.00,,,0.00,30,WeatherCatV1.02B3,2013-10-30 23:54:00,
2013-10-30 16:59:00,68.5,42.6,29.75,SW,236,1.0,1.0,39,0.00,,,0.00,28,WeatherCatV1.02B3,2013-10-30 23:59:00,
2013-10-30 17:04:00,68.1,42.2,29.75,WSW,256,0.0,1.0,39,0.00,,,0.00,26,WeatherCatV1.02B3,2013-10-31 00:04:00,
2013-10-30 17:09:00,67.7,41.8,29.75,East,86,0.0,3.0,39,0.00,,,0.00,26,WeatherCatV1.02B3,2013-10-31 00:09:00,
2013-10-30 17:14:00,67.4,42.2,29.75,East,86,0.0,1.0,40,0.00,,,0.00,25,WeatherCatV1.02B3,2013-10-31 00:14:00,
2013-10-30 17:19:00,67.1,42.6,29.75,NW,311,0.0,1.0,41,0.00,,,0.00,23,WeatherCatV1.02B3,2013-10-31 00:19:00,
2013-10-30 17:24:00,66.9,42.4,29.75,North,11,0.0,2.0,41,0.00,,,0.00,23,WeatherCatV1.02B3,2013-10-31 00:24:00,
2013-10-30 17:29:00,66.6,42.2,29.75,WNW,294,0.0,1.0,41,0.00,,,0.00,19,WeatherCatV1.02B3,2013-10-31 00:29:00,
2013-10-30 17:34:00,66.2,41.8,29.75,ESE,111,0.0,2.0,41,0.00,,,0.00,18,WeatherCatV1.02B3,2013-10-31 00:34:00,
2013-10-30 17:39:00,65.8,41.4,29.75,ENE,57,0.0,0.0,41,0.00,,,0.00,16,WeatherCatV1.02B3,2013-10-31 00:39:00,
2013-10-30 17:44:00,65.5,41.8,29.75,ENE,57,0.0,1.0,42,0.00,,,0.00,14,WeatherCatV1.02B3,2013-10-31 00:44:00,
2013-10-30 17:49:00,65.2,41.5,29.75,ENE,57,0.0,0.0,42,0.00,,,0.00,12,WeatherCatV1.02B3,2013-10-31 00:49:00,
2013-10-30 17:54:00,64.8,41.8,29.75,ENE,57,0.0,0.0,43,0.00,,,0.00,9,WeatherCatV1.02B3,2013-10-31 00:54:00,
2013-10-30 17:59:00,64.3,41.3,29.75,ENE,57,0.0,0.0,43,0.00,,,0.00,7,WeatherCatV1.02B3,2013-10-31 00:59:00,
2013-10-30 18:04:00,63.8,40.9,29.75,ENE,57,0.0,0.0,43,0.00,,,0.00,5,WeatherCatV1.02B3,2013-10-31 01:04:00,
2013-10-30 18:09:00,63.4,41.1,29.75,ENE,57,0.0,0.0,44,0.00,,,0.00,0,WeatherCatV1.02B3,2013-10-31 01:09:00,
2013-10-30 18:14:00,62.7,41.0,29.75,ENE,57,0.0,2.0,45,0.00,,,0.00,0,WeatherCatV1.02B3,2013-10-31 01:14:00,
2013-10-30 18:19:00,62.1,40.5,29.75,ENE,57,0.0,1.0,45,0.00,,,0.00,0,WeatherCatV1.02B3,2013-10-31 01:19:00,
2013-10-30 18:24:00,61.6,40.0,29.75,ENE,57,0.0,0.0,45,0.00,,,0.00,0,WeatherCatV1.02B3,2013-10-31 01:24:00,
2013-10-30 18:29:00,61.1,40.2,29.75,ENE,57,0.0,1.0,46,0.00,,,0.00,0,WeatherCatV1.02B3,2013-10-31 01:29:00,
2013-10-30 18:35:00,60.6,40.3,29.75,ENE,57,0.0,0.0,47,0.00,,,0.00,0,WeatherCatV1.02B3,2013-10-31 01:35:00,
2013-10-30 18:40:00,60.1,40.3,29.75,ENE,57,0.0,0.0,48,0.00,,,0.00,0,WeatherCatV1.02B3,2013-10-31 01:40:00,
2013-10-30 18:45:00,59.7,40.5,29.75,ENE,57,0.0,0.0,49,0.00,,,0.00,0,WeatherCatV1.02B3,2013-10-31 01:45:00,
2013-10-30 18:50:00,59.3,40.7,29.75,ENE,57,0.0,0.0,50,0.00,,,0.00,0,WeatherCatV1.02B3,2013-10-31 01:50:00,
2013-10-30 18:55:00,58.9,40.3,29.75,ENE,57,0.0,1.0,50,0.00,,,0.00,0,WeatherCatV1.02B3,2013-10-31 01:55:00,
2013-10-30 19:00:00,58.4,40.3,29.75,ENE,57,0.0,0.0,51,0.00,,,0.00,0,WeatherCatV1.02B3,2013-10-31 02:00:00,
2013-10-30 19:05:00,58.1,40.1,29.75,ENE,57,0.0,1.0,51,0.00,,,0.00,0,WeatherCatV1.02B3,2013-10-31 02:05:00,
2013-10-30 19:09:00,57.7,40.2,29.75,ENE,57,0.0,0.0,52,0.00,,,0.00,0,WeatherCatV1.02B3,2013-10-31 02:09:00,
2013-10-30 19:14:00,57.5,40.0,29.75,ENE,57,0.0,0.0,52,0.00,,,0.00,0,WeatherCatV1.02B3,2013-10-31 02:14:00,
2013-10-30 19:19:00,57.4,40.4,29.75,ENE,57,0.0,0.0,53,0.00,,,0.00,0,WeatherCatV1.02B3,2013-10-31 02:19:00,
2013-10-30 19:24:00,57.1,40.6,29.75,NE,51,2.0,2.0,54,0.00,,,0.00,0,WeatherCatV1.02B3,2013-10-31 02:24:00,
2013-10-30 19:29:00,56.8,40.8,29.75,NE,42,0.0,3.0,55,0.00,,,0.00,0,WeatherCatV1.02B3,2013-10-31 02:29:00,
2013-10-30 19:34:00,56.6,40.6,29.75,NE,40,1.0,3.0,55,0.00,,,0.00,0,WeatherCatV1.02B3,2013-10-31 02:34:00,
2013-10-30 19:39:00,56.4,40.4,29.75,NNE,32,0.0,1.0,55,0.00,,,0.00,0,WeatherCatV1.02B3,2013-10-31 02:39:00,
2013-10-30 19:44:00,56.2,40.2,29.75,NNE,29,0.0,0.0,55,0.00,,,0.00,0,WeatherCatV1.02B3,2013-10-31 02:44:00,
2013-10-30 19:49:00,56.0,40.1,29.75,NE,38,0.0,2.0,55,0.00,,,0.00,0,WeatherCatV1.02B3,2013-10-31 02:49:00,
2013-10-30 19:54:00,55.8,39.9,29.75,NE,42,0.0,1.0,55,0.00,,,0.00,0,WeatherCatV1.02B3,2013-10-31 02:54:00,
2013-10-30 19:59:00,55.6,40.2,29.75,NE,51,0.0,2.0,56,0.00,,,0.00,0,WeatherCatV1.02B3,2013-10-31 02:59:00,
2013-10-30 20:00:00,55.5,40.1,29.75,NE,51,0.0,2.0,56,0.00,,,0.00,0,WeatherCatV1.02B3,2013-10-31 03:00:00,
2013-10-30 20:05:00,55.4,40.0,29.75,NE,51,0.0,0.0,56,0.00,,,0.00,0,WeatherCatV1.02B3,2013-10-31 03:05:00,
2013-10-30 20:10:00,55.2,39.8,29.75,NE,53,0.0,0.0,56,0.00,,,0.00,0,WeatherCatV1.02B3,2013-10-31 03:10:00,
2013-10-30 20:15:00,54.9,39.5,29.75,NE,53,1.0,1.0,56,0.00,,,0.00,0,WeatherCatV1.02B3,2013-10-31 03:15:00,
2013-10-30 20:20:00,54.7,39.8,29.75,NE,48,0.0,1.0,57,0.00,,,0.00,0,WeatherCatV1.02B3,2013-10-31 03:20:00,
2013-10-30 20:25:00,54.5,39.6,29.75,NE,47,0.0,1.0,57,0.00,,,0.00,0,WeatherCatV1.02B3,2013-10-31 03:25:00,
2013-10-30 20:30:00,54.2,39.3,29.75,NE,39,0.0,1.0,57,0.00,,,0.00,0,WeatherCatV1.02B3,2013-10-31 03:30:00,
2013-10-30 20:35:00,53.9,39.5,29.75,NE,53,2.0,3.0,58,0.00,,,0.00,0,WeatherCatV1.02B3,2013-10-31 03:35:00,
2013-10-30 20:40:00,53.6,39.6,29.75,NE,50,0.0,0.0,59,0.00,,,0.00,0,WeatherCatV1.02B3,2013-10-31 03:40:00,
2013-10-30 20:45:00,53.5,39.5,29.75,NE,50,0.0,0.0,59,0.00,,,0.00,0,WeatherCatV1.02B3,2013-10-31 03:45:00,
2013-10-30 20:50:00,53.2,39.2,29.75,NE,50,0.0,0.0,59,0.00,,,0.00,0,WeatherCatV1.02B3,2013-10-31 03:50:00,
2013-10-30 20:55:00,53.0,39.1,29.75,NE,50,0.0,0.0,59,0.00,,,0.00,0,WeatherCatV1.02B3,2013-10-31 03:55:00,
2013-10-30 21:00:00,52.7,39.2,29.75,NE,50,1.0,2.0,60,0.00,,,0.00,0,WeatherCatV1.02B3,2013-10-31 04:00:00,
2013-10-30 21:01:00,52.7,39.2,29.75,NE,50,1.0,2.0,60,0.00,,,0.00,0,WeatherCatV1.02B3,2013-10-31 04:01:00,
2013-10-30 21:06:00,52.3,38.8,29.75,NE,50,0.0,0.0,60,0.00,,,0.00,0,WeatherCatV1.02B3,2013-10-31 04:06:00,
2013-10-30 21:11:00,52.0,39.0,29.75,NE,46,0.0,2.0,61,0.00,,,0.00,0,WeatherCatV1.02B3,2013-10-31 04:11:00,
2013-10-30 21:16:00,51.7,39.1,29.75,NNE,24,1.0,3.0,62,0.00,,,0.00,0,WeatherCatV1.02B3,2013-10-31 04:16:00,
2013-10-30 21:21:00,51.5,39.3,29.75,North,349,1.0,3.0,63,0.00,,,0.00,0,WeatherCatV1.02B3,2013-10-31 04:21:00,
2013-10-30 21:26:00,51.4,39.2,29.75,NE,42,2.0,3.0,63,0.00,,,0.00,0,WeatherCatV1.02B3,2013-10-31 04:26:00,
2013-10-30 21:31:00,51.3,39.1,29.75,NE,53,1.0,2.0,63,0.00,,,0.00,0,WeatherCatV1.02B3,2013-10-31 04:31:00,
2013-10-30 21:36:00,51.2,39.4,29.75,NE,52,2.0,2.0,64,0.00,,,0.00,0,WeatherCatV1.02B3,2013-10-31 04:36:00,
2013-10-30 21:41:00,51.0,39.3,29.75,North,5,2.0,2.0,64,0.00,,,0.00,0,WeatherCatV1.02B3,2013-10-31 04:41:00,
2013-10-30 21:46:00,50.9,39.2,29.75,ENE,59,2.0,2.0,64,0.00,,,0.00,0,WeatherCatV1.02B3,2013-10-31 04:46:00,
2013-10-30 21:51:00,50.8,39.1,29.75,ENE,61,0.0,0.0,64,0.00,,,0.00,0,WeatherCatV1.02B3,2013-10-31 04:51:00,
2013-10-30 21:56:00,50.7,38.6,29.75,ENE,61,0.0,0.0,63,0.00,,,0.00,0,WeatherCatV1.02B3,2013-10-31 04:56:00,
2013-10-30 22:01:00,50.4,38.3,29.75,ENE,61,0.0,1.0,63,0.00,,,0.00,0,WeatherCatV1.02B3,2013-10-31 05:01:00,
2013-10-30 22:06:00,50.2,38.1,29.75,ENE,61,0.0,1.0,63,0.00,,,0.00,0,WeatherCatV1.02B3,2013-10-31 05:06:00,
2013-10-30 22:11:00,49.8,38.1,29.75,ENE,61,0.0,1.0,64,0.00,,,0.00,0,WeatherCatV1.02B3,2013-10-31 05:11:00,
2013-10-30 22:16:00,49.5,38.2,29.75,ENE,61,0.0,0.0,65,0.00,,,0.00,0,WeatherCatV1.02B3,2013-10-31 05:16:00,
2013-10-30 22:21:00,49.3,38.0,29.75,ENE,61,0.0,0.0,65,0.00,,,0.00,0,WeatherCatV1.02B3,2013-10-31 05:21:00,
2013-10-30 22:26:00,48.9,37.7,29.75,ENE,61,0.0,0.0,65,0.00,,,0.00,0,WeatherCatV1.02B3,2013-10-31 05:26:00,
2013-10-30 22:31:00,48.6,37.8,29.75,ENE,61,0.0,1.0,66,0.00,,,0.00,0,WeatherCatV1.02B3,2013-10-31 05:31:00,
2013-10-30 22:36:00,48.3,37.5,29.75,ENE,61,0.0,0.0,66,0.00,,,0.00,0,WeatherCatV1.02B3,2013-10-31 05:36:00,
2013-10-30 22:41:00,48.0,37.6,29.75,ENE,61,0.0,0.0,67,0.00,,,0.00,0,WeatherCatV1.02B3,2013-10-31 05:41:00,
2013-10-30 22:46:00,47.5,37.5,29.75,ENE,61,0.0,1.0,68,0.00,,,0.00,0,WeatherCatV1.02B3,2013-10-31 05:46:00,
2013-10-30 22:51:00,47.2,37.6,29.75,ENE,61,0.0,0.0,69,0.00,,,0.00,0,WeatherCatV1.02B3,2013-10-31 05:51:00,
2013-10-30 22:56:00,47.0,37.4,29.75,ENE,61,0.0,0.0,69,0.00,,,0.00,0,WeatherCatV1.02B3,2013-10-31 05:56:00,
2013-10-30 23:01:00,46.9,37.6,29.75,ENE,61,0.0,0.0,70,0.00,,,0.00,0,WeatherCatV1.02B3,2013-10-31 06:01:00,
2013-10-30 23:06:00,46.6,37.3,29.75,ENE,61,0.0,1.0,70,0.00,,,0.00,0,WeatherCatV1.02B3,2013-10-31 06:06:00,
2013-10-30 23:11:00,46.4,37.5,29.75,ENE,61,0.0,0.0,71,0.00,,,0.00,0,WeatherCatV1.02B3,2013-10-31 06:11:00,
2013-10-30 23:16:00,46.2,37.3,29.75,ENE,61,0.0,0.0,71,0.00,,,0.00,0,WeatherCatV1.02B3,2013-10-31 06:16:00,
2013-10-30 23:21:00,46.0,37.5,29.75,ENE,61,0.0,1.0,72,0.00,,,0.00,0,WeatherCatV1.02B3,2013-10-31 06:21:00,
2013-10-30 23:26:00,45.7,37.2,29.75,ENE,61,0.0,0.0,72,0.00,,,0.00,0,WeatherCatV1.02B3,2013-10-31 06:26:00,
2013-10-30 23:31:00,45.5,37.4,29.75,ENE,61,0.0,0.0,73,0.00,,,0.00,0,WeatherCatV1.02B3,2013-10-31 06:31:00,
2013-10-30 23:36:00,45.3,37.2,29.75,ENE,61,0.0,0.0,73,0.00,,,0.00,0,WeatherCatV1.02B3,2013-10-31 06:36:00,
2013-10-30 23:41:00,45.1,37.0,29.75,ENE,61,0.0,0.0,73,0.00,,,0.00,0,WeatherCatV1.02B3,2013-10-31 06:41:00,
2013-10-30 23:46:00,45.0,36.9,29.75,ENE,61,0.0,0.0,73,0.00,,,0.00,0,WeatherCatV1.02B3,2013-10-31 06:46:00,
2013-10-30 23:51:00,44.7,36.9,29.75,ENE,61,0.0,0.0,74,0.00,,,0.00,0,WeatherCatV1.02B3,2013-10-31 06:51:00,
2013-10-30 23:56:00,44.6,37.2,29.75,NE,46,0.0,0.0,75,0.00,,,0.00,0,WeatherCatV1.02B3,2013-10-31 06:56:00,